Weather History for Lafayette, IN

Change the Weather History Date:

Tuesday, August 27, 2013

  Actual Average Record
Temperature  
Mean Temperature 80 °F 72 °F  
Max Temperature 91 °F 83 °F 94 °F (1973)
Min Temperature 68 °F 61 °F 44 °F (1968)
Degree Days  
Heating Degree Days 0 0  
Month to date heating degree days 11 0  
Since 1 June heating degree days 38 23  
Since 1 July heating degree days 20 1  
Cooling Degree Days 15 8  
Month to date cooling degree days 165 234  
Year to date cooling degree days 668 825  
Since 1 June cooling degree days 567 748  
Growing Degree Days 30 (Base 50)    
Moisture  
Dew Point 70 °F    
Average Humidity 78    
Maximum Humidity 100    
Minimum Humidity 56    
Precipitation  
Precipitation 0.00 in 0.12 in 2.46 in (1981)
Month to date precipitation 1.74 3.05  
Year to date precipitation 27.28 25.14  
Sea Level Pressure  
Sea Level Pressure 29.99 in    
Wind  
Wind Speed 6 mph (WSW)    
Max Wind Speed 15 mph    
Max Gust Speed 21 mph    
Visibility 8 miles    
Events      
T = Trace of Precipitation, MM = Missing Value Source: NWS Daily Summary

Daily Weather History Graph

Daily Weather History Graph

Search for Another Location

Airport:

Trip Planner

Search our weather history database for the weather conditions in past years. The results will help you decide how hot, cold, wet, or windy it might be!

Date:

Astronomy

Aug. 27, 2013 Rise Set
Actual Time 7:10 AM EDT 8:27 PM EDT
Civil Twilight 6:42 AM EDT 8:55 PM EDT
Nautical Twilight 6:08 AM EDT 9:29 PM EDT
Astronomical Twilight 5:32 AM EDT 10:04 PM EDT
Moon No Moon Rise 2:09 PM EDT (8/27)
Length of Visible Light 14h 13m
Length of Day
13h 16m
Waning Gibbous, 57% of the Moon is Illuminated
Aug 27
Waning Gibbous
Aug 28
Last Quarter
Sep 5
New
Sep 12
First Quarter
Sep 19
Full

Hourly Weather History & Observations

Time (EDT) Temp. Heat Index Dew Point Humidity Pressure Visibility Wind Dir Wind Speed Gust Speed Precip Events Conditions
12:54 AM 71.1 °F - 68.0 °F 90% 30.06 in 8.0 mi Calm Calm - N/A   Clear
1:54 AM 70.0 °F - 68.0 °F 93% 30.05 in 8.0 mi Calm Calm - N/A   Clear
2:54 AM 69.1 °F - 66.9 °F 93% 30.04 in 7.0 mi West 3.5 mph - N/A   Clear
3:54 AM 69.1 °F - 68.0 °F 96% 30.03 in 6.0 mi Calm Calm - N/A   Clear
4:54 AM 69.1 °F - 68.0 °F 96% 30.01 in 5.0 mi WSW 3.5 mph - N/A   Clear
5:54 AM 69.1 °F - 68.0 °F 96% 30.01 in 5.0 mi Calm Calm - N/A   Clear
6:54 AM 69.1 °F - 68.0 °F 96% 30.01 in 5.0 mi Calm Calm - N/A   Clear
7:54 AM 70.0 °F - 69.1 °F 97% 30.02 in 4.0 mi WSW 3.5 mph - N/A   Clear
8:54 AM 73.0 °F - 70.0 °F 90% 30.04 in 5.0 mi WSW 4.6 mph - N/A   Clear
9:54 AM 77.0 °F - 70.0 °F 79% 30.03 in 9.0 mi West 5.8 mph - N/A   Clear
10:54 AM 82.0 °F 86.3 °F 71.1 °F 69% 30.02 in 10.0 mi West 9.2 mph - N/A   Clear
11:54 AM 87.1 °F 93.6 °F 72.0 °F 61% 30.02 in 10.0 mi West 10.4 mph - N/A   Clear
12:54 PM 87.1 °F 93.6 °F 72.0 °F 61% 30.01 in 10.0 mi West 10.4 mph - N/A   Partly Cloudy
1:54 PM 89.1 °F 96.0 °F 72.0 °F 57% 29.99 in 10.0 mi SW 8.1 mph - N/A   Clear
2:54 PM 90.0 °F 96.9 °F 72.0 °F 55% 29.97 in 10.0 mi SW 8.1 mph - N/A   Scattered Clouds
3:54 PM 89.1 °F 96.0 °F 72.0 °F 57% 29.95 in 10.0 mi SW 6.9 mph - N/A   Mostly Cloudy
4:54 PM 90.0 °F 96.9 °F 72.0 °F 55% 29.94 in 10.0 mi SSW 12.7 mph 18.4 mph N/A   Partly Cloudy
5:54 PM 89.1 °F 95.0 °F 71.1 °F 55% 29.94 in 10.0 mi SW 11.5 mph 19.6 mph N/A   Clear
6:54 PM 88.0 °F 93.8 °F 71.1 °F 57% 29.94 in 10.0 mi SW 9.2 mph 17.3 mph N/A   Clear
7:54 PM 84.9 °F 90.1 °F 71.1 °F 63% 29.94 in 10.0 mi SW 4.6 mph - N/A   Clear
8:54 PM 81.0 °F 84.9 °F 71.1 °F 72% 29.94 in 10.0 mi SW 5.8 mph - N/A   Clear
9:54 PM 79.0 °F - 70.0 °F 74% 29.94 in 10.0 mi SW 3.5 mph - N/A   Clear
10:54 PM 77.0 °F - 70.0 °F 79% 29.94 in 10.0 mi WSW 4.6 mph - N/A   Clear
11:54 PM 75.9 °F - 69.1 °F 79% 29.93 in 10.0 mi WSW 5.8 mph - N/A   Clear